Precipitable_Water
0.34 0.35 0.35 0.38 0.36 0.33 0.29 0.26 0.24 0.23 0.24 0.24 0.22 0.21 0.23 0.22 0.18 0.14 0.17 0.18 0.16 0.17 0.18 0.18 0.18 0.18 0.18 0.18 0.20 0.23 0.26 0.29 0.32 0.35 0.39 0.43 0.47 0.54 0.65 0.75 0.84 0.88 0.87 0.89 0.92 0.95 1.00 1.05 1.08 1.11 1.15 1.19 1.24 1.28 1.30 1.33 1.35 1.34 1.36 1.37 1.39 1.43 1.46 1.44 1.43 1.48 1.53 1.57 1.58 1.55 1.47 1.34 1.23 1.20 1.21 1.22 1.22 1.24 1.24 1.25 1.32 1.40 1.47 1.45 1.44 1.45 1.49
0.33 0.33 0.35 0.38 0.36 0.34 0.32 0.28 0.26 0.25 0.24 0.24 0.23 0.23 0.24 0.23 0.22 0.22 0.22 0.21 0.20 0.20 0.20 0.20 0.19 0.20 0.21 0.22 0.28 0.30 0.31 0.30 0.32 0.34 0.37 0.39 0.42 0.49 0.60 0.70 0.81 0.88 0.88 0.89 0.90 0.93 0.96 1.01 1.05 1.10 1.14 1.16 1.20 1.21 1.25 1.31 1.33 1.35 1.40 1.37 1.35 1.37 1.39 1.41 1.45 1.51 1.55 1.57 1.56 1.57 1.53 1.40 1.27 1.22 1.22 1.23 1.24 1.22 1.22 1.25 1.33 1.42 1.45 1.44 1.44 1.43 1.42
0.32 0.34 0.37 0.38 0.38 0.36 0.31 0.30 0.28 0.27 0.24 0.24 0.24 0.24 0.24 0.24 0.24 0.24 0.24 0.23 0.22 0.25 0.26 0.24 0.23 0.21 0.21 0.20 0.21 0.26 0.31 0.35 0.37 0.38 0.39 0.42 0.43 0.47 0.56 0.65 0.77 0.85 0.89 0.91 0.93 0.95 0.97 1.00 1.04 1.08 1.10 1.14 1.18 1.21 1.25 1.30 1.32 1.37 1.40 1.37 1.37 1.37 1.36 1.41 1.48 1.53 1.56 1.56 1.56 1.53 1.51 1.47 1.38 1.28 1.24 1.25 1.23 1.22 1.22 1.26 1.33 1.40 1.41 1.38 1.39 1.42 1.42
0.30 0.35 0.36 0.37 0.38 0.37 0.34 0.31 0.29 0.26 0.25 0.21 0.22 0.22 0.24 0.23 0.21 0.22 0.23 0.21 0.21 0.25 0.28 0.28 0.26 0.24 0.21 0.19 0.20 0.23 0.27 0.31 0.35 0.42 0.47 0.47 0.47 0.48 0.53 0.63 0.72 0.78 0.83 0.87 0.90 0.91 0.94 1.00 1.04 1.08 1.11 1.16 1.19 1.21 1.26 1.28 1.31 1.38 1.40 1.38 1.36 1.37 1.39 1.46 1.49 1.51 1.54 1.57 1.56 1.53 1.54 1.50 1.43 1.34 1.29 1.26 1.23 1.22 1.22 1.22 1.29 1.36 1.35 1.33 1.36 1.39 1.41
0.29 0.36 0.39 0.38 0.38 0.35 0.29 0.27 0.27 0.26 0.26 0.26 0.24 0.24 0.26 0.26 0.25 0.23 0.20 0.19 0.23 0.26 0.29 0.27 0.27 0.26 0.23 0.20 0.21 0.23 0.25 0.31 0.35 0.35 0.34 0.37 0.43 0.52 0.57 0.61 0.67 0.73 0.78 0.82 0.85 0.86 0.89 0.97 1.03 1.06 1.11 1.15 1.17 1.20 1.24 1.27 1.33 1.36 1.36 1.36 1.36 1.37 1.42 1.47 1.49 1.52 1.56 1.57 1.55 1.54 1.53 1.53 1.52 1.45 1.35 1.27 1.23 1.21 1.18 1.20 1.26 1.26 1.26 1.28 1.30 1.35 1.37
0.29 0.34 0.39 0.40 0.35 0.25 0.22 0.25 0.31 0.32 0.27 0.26 0.25 0.23 0.24 0.27 0.28 0.26 0.26 0.26 0.27 0.28 0.29 0.28 0.27 0.26 0.24 0.22 0.28 0.33 0.31 0.29 0.31 0.41 0.44 0.44 0.45 0.56 0.62 0.64 0.69 0.75 0.83 0.88 0.90 0.92 0.93 0.97 1.03 1.08 1.14 1.16 1.20 1.26 1.26 1.30 1.31 1.31 1.31 1.32 1.32 1.33 1.39 1.44 1.48 1.52 1.55 1.56 1.56 1.56 1.57 1.60 1.59 1.51 1.39 1.27 1.22 1.22 1.23 1.24 1.22 1.20 1.22 1.22 1.25 1.29 1.31
0.29 0.35 0.38 0.33 0.27 0.25 0.29 0.35 0.35 0.34 0.33 0.32 0.30 0.28 0.27 0.27 0.28 0.28 0.27 0.27 0.28 0.29 0.30 0.31 0.30 0.30 0.37 0.40 0.41 0.45 0.48 0.42 0.36 0.36 0.41 0.46 0.47 0.56 0.70 0.71 0.71 0.76 0.83 0.86 0.90 0.95 0.99 1.01 1.06 1.12 1.15 1.19 1.23 1.26 1.32 1.30 1.27 1.25 1.24 1.23 1.26 1.31 1.34 1.41 1.47 1.51 1.52 1.53 1.54 1.58 1.61 1.61 1.59 1.53 1.44 1.35 1.29 1.26 1.23 1.18 1.15 1.14 1.15 1.16 1.19 1.23 1.26
0.36 0.34 0.34 0.27 0.26 0.35 0.39 0.41 0.42 0.43 0.36 0.35 0.33 0.30 0.31 0.33 0.30 0.28 0.27 0.28 0.29 0.30 0.32 0.34 0.36 0.36 0.42 0.46 0.48 0.51 0.58 0.58 0.51 0.46 0.45 0.50 0.54 0.58 0.70 0.72 0.77 0.79 0.78 0.79 0.82 0.87 0.94 0.99 1.04 1.08 1.10 1.18 1.20 1.19 1.25 1.22 1.19 1.18 1.17 1.18 1.20 1.26 1.29 1.35 1.41 1.45 1.48 1.50 1.55 1.61 1.62 1.61 1.57 1.51 1.47 1.40 1.31 1.28 1.23 1.19 1.19 1.21 1.21 1.18 1.14 1.18 1.23
0.30 0.31 0.32 0.33 0.39 0.37 0.38 0.37 0.43 0.47 0.38 0.40 0.32 0.26 0.30 0.39 0.38 0.33 0.29 0.28 0.30 0.31 0.33 0.35 0.40 0.46 0.45 0.39 0.43 0.55 0.59 0.62 0.64 0.62 0.61 0.62 0.63 0.69 0.74 0.79 0.81 0.82 0.86 0.86 0.85 0.85 0.88 0.94 0.99 1.04 1.09 1.16 1.18 1.19 1.17 1.17 1.18 1.18 1.19 1.17 1.17 1.20 1.22 1.30 1.38 1.45 1.46 1.49 1.54 1.60 1.62 1.59 1.53 1.49 1.45 1.42 1.39 1.37 1.24 1.18 1.15 1.14 1.11 1.10 1.14 1.16 1.18
0.37 0.33 0.33 0.35 0.34 0.29 0.34 0.50 0.63 0.68 0.69 0.64 0.54 0.45 0.31 0.43 0.47 0.44 0.35 0.31 0.32 0.33 0.35 0.38 0.43 0.45 0.37 0.33 0.37 0.50 0.61 0.64 0.63 0.70 0.72 0.74 0.75 0.82 0.84 0.81 0.80 0.86 0.89 0.88 0.89 0.91 0.96 0.98 1.00 1.03 1.08 1.09 1.08 1.08 1.08 1.11 1.15 1.17 1.17 1.15 1.17 1.18 1.20 1.27 1.35 1.43 1.48 1.51 1.55 1.60 1.62 1.57 1.52 1.49 1.48 1.48 1.42 1.39 1.25 1.18 1.13 1.11 1.11 1.13 1.16 1.16 1.17
0.38 0.39 0.35 0.34 0.31 0.33 0.51 0.55 0.64 0.71 0.72 0.61 0.59 0.39 0.31 0.47 0.56 0.52 0.45 0.40 0.44 0.42 0.39 0.42 0.43 0.37 0.32 0.35 0.41 0.55 0.64 0.64 0.66 0.62 0.66 0.74 0.80 0.85 0.90 0.90 0.89 0.87 0.87 0.89 0.91 0.96 0.97 0.98 1.06 1.11 1.12 1.10 1.04 1.00 1.03 1.07 1.11 1.11 1.10 1.10 1.16 1.20 1.23 1.27 1.30 1.37 1.46 1.53 1.59 1.62 1.61 1.59 1.59 1.54 1.48 1.44 1.43 1.43 1.36 1.29 1.22 1.22 1.23 1.18 1.15 1.19 1.23
0.40 0.42 0.38 0.35 0.42 0.43 0.57 0.67 0.71 0.79 0.75 0.65 0.45 0.27 0.28 0.48 0.65 0.59 0.55 0.50 0.49 0.50 0.48 0.46 0.43 0.37 0.33 0.38 0.48 0.67 0.70 0.68 0.68 0.64 0.61 0.63 0.67 0.76 0.87 0.94 0.96 0.97 0.95 0.91 0.92 0.90 0.92 0.96 1.07 1.13 1.13 1.09 1.03 0.98 0.99 1.04 1.04 1.01 1.02 1.05 1.11 1.18 1.23 1.29 1.36 1.40 1.46 1.52 1.59 1.63 1.61 1.62 1.66 1.62 1.58 1.53 1.48 1.44 1.40 1.38 1.34 1.33 1.30 1.26 1.22 1.22 1.26
0.44 0.45 0.42 0.45 0.45 0.58 0.74 0.75 0.81 0.81 0.79 0.57 0.30 0.24 0.38 0.64 0.70 0.68 0.64 0.60 0.59 0.58 0.55 0.53 0.44 0.59 0.61 0.65 0.73 0.75 0.73 0.66 0.62 0.66 0.69 0.68 0.70 0.69 0.71 0.77 0.83 0.83 0.90 0.97 0.93 0.95 0.99 1.03 1.08 1.10 1.13 1.10 1.04 1.05 1.05 1.04 1.00 0.98 1.00 1.04 1.09 1.17 1.24 1.32 1.38 1.40 1.44 1.48 1.52 1.60 1.66 1.66 1.70 1.71 1.68 1.57 1.50 1.45 1.43 1.45 1.43 1.39 1.35 1.33 1.30 1.28 1.34
0.42 0.45 0.42 0.42 0.48 0.63 0.80 0.85 0.89 0.89 0.61 0.34 0.31 0.64 0.89 0.85 0.75 0.75 0.72 0.65 0.68 0.66 0.64 0.63 0.64 0.70 0.78 0.80 0.78 0.72 0.70 0.68 0.68 0.67 0.65 0.63 0.65 0.71 0.75 0.78 0.77 0.74 0.77 0.84 0.94 1.00 1.02 1.08 1.12 1.12 1.10 1.07 1.09 1.10 1.10 1.05 1.01 1.03 1.05 1.08 1.13 1.18 1.25 1.32 1.37 1.40 1.43 1.46 1.53 1.60 1.68 1.72 1.71 1.68 1.68 1.65 1.58 1.51 1.49 1.47 1.42 1.37 1.37 1.36 1.34 1.37 1.45
0.50 0.48 0.44 0.42 0.36 0.64 0.88 0.88 0.82 0.90 0.58 0.68 0.84 0.90 0.96 0.97 0.88 0.82 0.76 0.73 0.74 0.71 0.70 0.76 0.77 0.77 0.78 0.75 0.73 0.73 0.73 0.71 0.68 0.67 0.66 0.64 0.63 0.63 0.64 0.66 0.75 0.78 0.73 0.73 0.80 0.96 1.05 1.06 1.07 1.12 1.12 1.06 1.07 1.11 1.10 1.06 1.09 1.13 1.16 1.18 1.18 1.20 1.25 1.28 1.35 1.41 1.45 1.47 1.48 1.56 1.62 1.67 1.66 1.63 1.67 1.69 1.66 1.61 1.53 1.47 1.43 1.39 1.39 1.40 1.42 1.44 1.50
0.41 0.41 0.41 0.43 0.54 0.77 0.92 0.92 0.69 0.89 0.89 1.00 1.02 1.00 0.92 0.99 0.98 0.92 0.85 0.82 0.83 0.80 0.76 0.76 0.77 0.79 0.76 0.75 0.75 0.74 0.74 0.76 0.77 0.75 0.75 0.74 0.73 0.72 0.75 0.77 0.75 0.77 0.75 0.77 0.76 0.78 0.89 0.97 0.99 1.01 1.03 1.05 1.10 1.12 1.09 1.10 1.14 1.19 1.23 1.26 1.28 1.26 1.25 1.25 1.28 1.34 1.43 1.48 1.50 1.53 1.57 1.62 1.65 1.65 1.66 1.67 1.70 1.67 1.57 1.49 1.46 1.45 1.46 1.49 1.50 1.49 1.52
0.53 0.44 0.50 0.66 0.83 0.90 1.01 1.04 1.02 1.07 1.11 1.11 1.09 1.09 1.01 0.97 0.97 1.03 0.94 0.91 0.92 0.90 0.85 0.82 0.80 0.76 0.79 0.77 0.79 0.74 0.75 0.78 0.76 0.75 0.76 0.76 0.74 0.75 0.75 0.74 0.78 0.79 0.76 0.74 0.76 0.79 0.87 0.93 1.00 1.02 1.02 0.98 1.02 1.04 1.09 1.19 1.23 1.22 1.22 1.25 1.29 1.27 1.23 1.24 1.25 1.28 1.37 1.44 1.44 1.45 1.51 1.57 1.56 1.60 1.66 1.71 1.66 1.68 1.64 1.56 1.51 1.48 1.48 1.53 1.55 1.59 1.64
0.73 0.72 0.73 0.80 0.86 0.92 0.96 1.08 1.13 1.11 1.14 1.17 1.16 1.10 1.03 1.04 1.09 1.06 0.98 0.99 0.98 0.97 0.96 0.85 0.85 0.84 0.84 0.82 0.82 0.81 0.81 0.80 0.80 0.82 0.81 0.80 0.83 0.81 0.80 0.78 0.80 0.80 0.80 0.79 0.79 0.77 0.82 0.90 0.95 1.03 1.05 1.03 0.91 0.91 1.02 1.09 1.12 1.20 1.26 1.26 1.24 1.23 1.24 1.25 1.26 1.28 1.31 1.37 1.44 1.46 1.47 1.52 1.55 1.62 1.68 1.71 1.72 1.73 1.73 1.67 1.62 1.57 1.56 1.58 1.61 1.63 1.65
0.60 0.50 0.71 0.74 0.79 0.86 0.96 0.99 1.08 1.13 1.17 1.18 1.22 1.20 1.18 1.15 1.15 1.13 1.09 1.06 1.03 1.02 0.99 0.92 0.87 0.87 0.89 0.85 0.85 0.86 0.85 0.83 0.83 0.82 0.81 0.82 0.84 0.84 0.82 0.85 0.84 0.80 0.80 0.77 0.78 0.79 0.79 0.92 0.97 1.00 1.05 1.08 1.06 1.05 1.05 1.10 1.16 1.19 1.19 1.21 1.22 1.22 1.21 1.20 1.24 1.29 1.29 1.26 1.32 1.39 1.43 1.46 1.52 1.62 1.71 1.71 1.69 1.73 1.83 1.77 1.66 1.58 1.54 1.53 1.55 1.60 1.66
0.57 0.56 0.71 0.77 0.83 0.85 0.90 0.93 0.91 1.03 1.07 1.10 1.19 1.20 1.15 1.16 1.21 1.19 1.14 1.13 1.06 1.05 0.98 0.98 0.92 0.89 0.90 0.85 0.84 0.84 0.84 0.84 0.86 0.86 0.85 0.85 0.87 0.91 0.94 0.95 0.95 0.91 0.86 0.82 0.82 0.82 0.84 0.91 0.98 1.01 1.04 1.08 1.18 1.21 1.18 1.17 1.18 1.19 1.20 1.20 1.19 1.22 1.26 1.27 1.27 1.29 1.32 1.36 1.37 1.40 1.45 1.49 1.45 1.47 1.55 1.64 1.64 1.68 1.73 1.72 1.67 1.60 1.55 1.54 1.57 1.65 1.62
0.67 0.74 0.79 0.82 0.85 0.84 0.87 0.89 0.95 0.97 1.04 1.11 1.14 1.24 1.19 1.20 1.19 1.19 1.19 1.17 1.11 1.05 0.99 1.00 0.96 0.90 0.90 0.91 0.90 0.87 0.87 0.87 0.87 0.87 0.90 0.92 0.92 0.93 0.93 0.95 0.95 0.91 0.91 0.90 0.91 0.90 0.90 0.96 0.98 1.00 1.02 1.06 1.13 1.21 1.28 1.29 1.30 1.24 1.18 1.19 1.25 1.26 1.28 1.28 1.25 1.27 1.28 1.33 1.41 1.43 1.50 1.59 1.62 1.55 1.45 1.49 1.59 1.68 1.80 1.84 1.81 1.69 1.64 1.68 1.81 1.82 1.80
0.58 0.59 0.65 0.79 0.67 0.68 0.80 0.87 0.91 0.95 1.00 1.10 1.12 1.20 1.18 1.19 1.18 1.20 1.18 1.18 1.18 1.12 1.07 1.03 1.00 0.93 0.93 0.95 0.95 0.92 0.93 0.92 0.92 0.93 0.93 0.95 0.95 0.97 1.01 1.01 0.99 0.97 0.97 0.94 0.92 0.93 0.97 1.02 1.04 1.03 1.05 1.10 1.15 1.19 1.24 1.33 1.37 1.31 1.28 1.26 1.25 1.24 1.25 1.25 1.26 1.27 1.30 1.34 1.40 1.47 1.51 1.53 1.53 1.63 1.74 1.69 1.65 1.64 1.69 1.86 1.94 1.96 1.88 1.84 1.83 1.72 1.77
0.53 0.69 0.76 0.79 0.81 0.81 0.84 0.90 0.98 0.98 1.02 1.06 1.02 1.08 1.12 1.14 1.18 1.17 1.16 1.13 1.10 1.06 1.06 1.07 1.02 0.99 0.97 0.97 1.00 0.98 0.96 0.97 0.99 1.00 1.00 0.97 0.98 0.99 1.03 1.01 1.00 0.98 0.98 0.98 0.97 0.95 0.99 1.03 1.06 1.08 1.09 1.13 1.15 1.20 1.23 1.26 1.31 1.34 1.36 1.31 1.26 1.26 1.28 1.26 1.29 1.36 1.40 1.41 1.44 1.47 1.48 1.48 1.52 1.55 1.61 1.80 1.75 1.75 1.86 1.89 2.01 2.11 2.11 2.09 1.99 1.91 1.87
0.75 0.79 0.79 0.83 0.82 0.74 0.86 0.93 0.95 1.00 1.02 1.00 1.00 1.01 1.06 1.11 1.15 1.16 1.14 1.10 1.03 1.01 1.02 1.03 1.05 1.03 1.02 1.03 1.03 0.99 1.00 1.03 1.04 1.05 1.08 1.09 1.09 1.09 1.10 1.09 1.07 1.05 1.03 1.02 1.02 1.02 1.06 1.08 1.08 1.10 1.11 1.14 1.17 1.22 1.26 1.28 1.30 1.33 1.38 1.40 1.40 1.41 1.36 1.32 1.33 1.36 1.42 1.45 1.46 1.47 1.47 1.51 1.54 1.56 1.54 1.57 1.65 1.77 1.79 1.96 2.09 1.98 1.95 2.04 2.05 1.99 1.95
0.73 0.87 0.89 0.89 0.90 0.88 0.91 0.95 0.98 1.00 0.99 0.98 0.94 0.97 1.05 1.05 1.07 1.13 1.06 1.04 1.01 0.97 0.94 0.93 0.98 1.01 1.00 1.02 1.02 1.00 1.00 1.04 1.09 1.12 1.15 1.17 1.16 1.13 1.11 1.12 1.11 1.10 1.09 1.09 1.12 1.13 1.14 1.14 1.15 1.17 1.17 1.19 1.23 1.25 1.28 1.30 1.29 1.28 1.27 1.29 1.35 1.45 1.55 1.60 1.53 1.47 1.47 1.48 1.49 1.47 1.49 1.55 1.56 1.57 1.53 1.39 1.28 1.39 1.72 1.86 1.99 2.00 1.96 2.00 1.98 1.95 1.82
0.90 0.90 0.92 0.93 0.96 0.92 0.94 0.93 0.93 0.96 0.97 0.98 0.95 1.00 1.04 1.06 1.05 1.03 1.01 0.99 0.96 0.94 0.90 0.88 0.87 0.90 0.93 0.93 0.94 0.96 0.98 1.02 1.09 1.16 1.18 1.18 1.19 1.18 1.15 1.14 1.16 1.18 1.17 1.16 1.17 1.18 1.19 1.20 1.19 1.20 1.21 1.26 1.28 1.30 1.30 1.32 1.33 1.33 1.34 1.32 1.33 1.36 1.47 1.65 1.69 1.67 1.52 1.49 1.47 1.49 1.53 1.54 1.59 1.63 1.50 1.48 1.43 1.40 1.35 1.54 1.73 1.89 1.98 1.97 1.93 1.79 1.68
0.87 0.90 0.87 0.86 0.83 0.84 0.88 0.82 0.80 0.89 0.92 0.94 0.93 0.93 0.97 0.97 0.99 1.00 1.00 0.98 0.96 0.95 0.91 0.89 0.86 0.85 0.85 0.87 0.89 0.93 0.94 1.01 1.09 1.12 1.15 1.18 1.20 1.22 1.24 1.26 1.24 1.22 1.21 1.20 1.20 1.20 1.19 1.20 1.21 1.22 1.23 1.29 1.32 1.29 1.27 1.26 1.25 1.24 1.26 1.31 1.37 1.38 1.45 1.66 1.80 1.81 1.82 1.73 1.63 1.60 1.54 1.48 1.46 1.57 1.66 1.63 1.70 1.54 1.48 1.45 1.48 1.53 1.71 1.76 1.82 1.69 1.50
0.86 0.88 0.90 0.76 0.71 0.75 0.81 0.87 0.90 0.91 0.91 0.89 0.89 0.90 0.94 0.94 0.90 0.87 0.85 0.87 0.89 0.92 0.91 0.89 0.86 0.81 0.78 0.80 0.81 0.83 0.91 0.98 1.02 1.11 1.15 1.18 1.25 1.30 1.32 1.30 1.27 1.25 1.22 1.21 1.22 1.24 1.25 1.24 1.23 1.22 1.24 1.32 1.36 1.34 1.33 1.33 1.29 1.30 1.34 1.36 1.38 1.42 1.49 1.59 1.79 1.95 1.94 1.89 1.71 1.59 1.46 1.35 1.26 1.47 1.95 1.94 1.82 1.77 1.73 1.73 1.65 1.48 1.49 1.65 1.53 1.48 1.42
0.83 0.87 0.93 0.94 0.93 0.91 0.93 0.94 0.92 0.89 0.88 0.93 0.94 0.94 0.92 0.88 0.86 0.84 0.83 0.83 0.84 0.84 0.84 0.86 0.87 0.86 0.83 0.83 0.80 0.75 0.77 0.82 0.94 1.04 1.13 1.26 1.32 1.33 1.35 1.36 1.35 1.32 1.26 1.25 1.26 1.26 1.25 1.24 1.24 1.21 1.21 1.30 1.35 1.39 1.37 1.34 1.32 1.33 1.31 1.32 1.38 1.51 1.64 1.69 1.69 1.72 1.83 1.85 1.82 1.72 1.70 1.68 1.61 1.65 1.67 1.70 1.73 1.73 1.71 1.65 1.58 1.53 1.47 1.40 1.34 1.32 1.32
0.85 0.91 0.93 0.94 0.93 0.92 0.88 0.87 0.87 0.89 0.89 0.91 0.89 0.89 0.89 0.87 0.82 0.83 0.84 0.85 0.84 0.82 0.85 0.87 0.86 0.85 0.88 0.85 0.85 0.82 0.77 0.77 0.81 0.94 1.11 1.22 1.31 1.35 1.37 1.39 1.37 1.35 1.31 1.28 1.29 1.30 1.25 1.25 1.26 1.26 1.30 1.40 1.44 1.45 1.44 1.41 1.40 1.42 1.40 1.40 1.44 1.50 1.56 1.66 1.69 1.66 1.75 1.78 1.76 1.74 1.70 1.69 1.54 1.38 1.35 1.46 1.60 1.64 1.59 1.46 1.36 1.32 1.31 1.28 1.29 1.24 1.16
0.87 0.91 0.93 0.96 0.92 0.90 0.87 0.87 0.87 0.87 0.88 0.87 0.87 0.85 0.86 0.87 0.85 0.84 0.85 0.85 0.86 0.85 0.87 0.88 0.87 0.86 0.86 0.87 0.90 0.92 0.93 0.91 0.88 0.87 0.91 1.07 1.21 1.31 1.35 1.34 1.27 1.25 1.24 1.26 1.29 1.33 1.35 1.31 1.30 1.30 1.36 1.42 1.45 1.46 1.47 1.49 1.44 1.40 1.41 1.43 1.44 1.49 1.57 1.58 1.59 1.60 1.63 1.64 1.62 1.57 1.53 1.48 1.43 1.34 1.31 1.37 1.43 1.44 1.41 1.36 1.35 1.30 1.26 1.26 1.24 1.20 1.18
0.84 0.85 0.88 0.90 0.94 0.93 0.88 0.86 0.84 0.83 0.84 0.86 0.82 0.80 0.82 0.84 0.83 0.84 0.87 0.87 0.88 0.92 0.94 0.94 0.92 0.91 0.93 0.96 0.97 0.98 0.99 1.01 1.00 0.97 0.94 0.93 1.01 1.15 1.24 1.32 1.33 1.33 1.33 1.31 1.32 1.32 1.33 1.36 1.33 1.31 1.39 1.42 1.44 1.45 1.43 1.42 1.45 1.38 1.39 1.45 1.50 1.54 1.57 1.61 1.57 1.60 1.62 1.58 1.53 1.44 1.35 1.33 1.44 1.48 1.49 1.48 1.44 1.40 1.36 1.31 1.26 1.24 1.23 1.23 1.22 1.22 1.27
0.78 0.77 0.78 0.82 0.87 0.89 0.88 0.88 0.84 0.83 0.85 0.86 0.87 0.89 0.91 0.94 0.94 0.94 0.95 0.95 0.96 0.97 0.97 0.96 0.98 1.00 1.01 1.00 0.98 0.97 0.98 1.01 1.04 1.04 1.00 0.97 0.98 1.01 1.06 1.14 1.26 1.29 1.32 1.37 1.37 1.36 1.36 1.35 1.37 1.45 1.48 1.51 1.48 1.44 1.42 1.41 1.43 1.47 1.45 1.50 1.54 1.60 1.57 1.54 1.57 1.61 1.59 1.56 1.48 1.41 1.37 1.38 1.38 1.39 1.38 1.37 1.37 1.36 1.31 1.27 1.27 1.27 1.28 1.28 1.29 1.32 1.37
0.81 0.79 0.81 0.86 0.87 0.84 0.85 0.88 0.93 0.92 0.94 0.94 0.94 0.94 0.96 0.98 0.99 0.99 0.98 0.98 0.98 0.98 0.99 1.01 1.04 1.06 1.07 1.06 1.04 1.00 0.96 0.94 0.94 0.98 1.01 1.00 0.99 1.02 1.05 1.04 1.06 1.16 1.22 1.29 1.36 1.35 1.35 1.39 1.42 1.42 1.43 1.42 1.43 1.46 1.41 1.40 1.43 1.40 1.42 1.45 1.39 1.39 1.52 1.60 1.62 1.61 1.53 1.51 1.50 1.46 1.43 1.41 1.39 1.36 1.34 1.35 1.35 1.32 1.28 1.27 1.27 1.26 1.29 1.32 1.35 1.39 1.41
0.97 0.95 0.96 0.95 0.98 0.99 0.99 0.97 0.96 0.96 0.95 0.93 0.94 0.95 0.98 1.00 0.99 0.98 1.00 0.99 0.99 1.03 1.08 1.09 1.10 1.11 1.11 1.11 1.10 1.06 1.00 0.96 0.95 0.97 1.00 1.03 1.04 1.05 1.05 1.03 1.02 1.03 1.10 1.18 1.24 1.33 1.38 1.39 1.37 1.37 1.39 1.41 1.43 1.44 1.44 1.43 1.40 1.45 1.49 1.50 1.49 1.49 1.48 1.48 1.52 1.57 1.57 1.47 1.49 1.43 1.43 1.41 1.41 1.40 1.36 1.34 1.29 1.25 1.24 1.25 1.27 1.30 1.33 1.33 1.34 1.39 1.40
1.01 0.99 0.98 0.97 0.99 1.01 1.00 1.00 0.99 0.98 0.96 0.96 0.97 0.97 0.99 1.02 1.03 1.03 1.02 1.05 1.10 1.12 1.12 1.13 1.14 1.14 1.12 1.11 1.10 1.10 1.09 1.10 1.10 1.10 1.09 1.10 1.11 1.11 1.09 1.07 1.07 1.05 1.04 1.06 1.17 1.26 1.34 1.37 1.38 1.38 1.39 1.39 1.41 1.45 1.44 1.39 1.42 1.47 1.46 1.54 1.56 1.55 1.57 1.57 1.56 1.54 1.54 1.58 1.53 1.45 1.45 1.42 1.40 1.35 1.32 1.31 1.29 1.26 1.26 1.27 1.28 1.30 1.31 1.34 1.33 1.33 1.31
0.99 0.98 1.01 1.01 1.01 0.99 0.97 0.98 1.00 1.01 1.01 1.01 1.01 1.01 1.02 1.05 1.06 1.09 1.12 1.12 1.13 1.13 1.13 1.12 1.09 1.07 1.08 1.13 1.17 1.18 1.17 1.17 1.18 1.17 1.17 1.17 1.15 1.10 1.09 1.08 1.06 1.03 1.03 1.00 1.11 1.22 1.24 1.30 1.32 1.33 1.35 1.37 1.40 1.44 1.48 1.51 1.56 1.60 1.60 1.58 1.52 1.47 1.52 1.52 1.53 1.48 1.47 1.48 1.48 1.51 1.45 1.41 1.37 1.35 1.32 1.29 1.28 1.29 1.31 1.32 1.33 1.33 1.34 1.33 1.31 1.31 1.26
0.98 0.99 1.01 0.99 1.01 1.01 1.00 1.04 1.08 1.07 1.05 1.04 1.06 1.06 1.04 1.05 1.09 1.10 1.10 1.12 1.14 1.14 1.13 1.11 1.09 1.08 1.09 1.13 1.13 1.13 1.16 1.20 1.22 1.23 1.23 1.20 1.18 1.10 1.07 1.06 1.05 1.06 1.03 1.05 1.16 1.22 1.23 1.24 1.25 1.26 1.27 1.30 1.35 1.40 1.45 1.47 1.49 1.51 1.52 1.54 1.53 1.52 1.48 1.46 1.47 1.47 1.45 1.45 1.43 1.45 1.44 1.38 1.37 1.31 1.29 1.29 1.32 1.32 1.31 1.32 1.31 1.30 1.28 1.27 1.27 1.23 1.12
1.04 1.08 1.08 1.07 1.06 1.05 1.07 1.10 1.11 1.11 1.08 1.01 1.03 1.07 1.11 1.11 1.12 1.12 1.10 1.12 1.16 1.18 1.14 1.10 1.10 1.08 1.06 1.04 1.03 1.06 1.09 1.12 1.15 1.15 1.17 1.18 1.20 1.16 1.11 1.11 1.10 1.10 1.09 1.15 1.18 1.20 1.25 1.28 1.28 1.26 1.26 1.27 1.29 1.31 1.35 1.38 1.39 1.37 1.40 1.43 1.48 1.46 1.45 1.46 1.43 1.45 1.47 1.50 1.49 1.43 1.39 1.46 1.45 1.35 1.33 1.32 1.33 1.29 1.27 1.23 1.24 1.22 1.21 1.19 1.15 1.10 1.10
1.01 1.02 1.03 1.04 1.02 1.03 1.03 1.04 1.07 1.08 1.09 1.11 1.07 1.06 1.12 1.12 1.11 1.07 1.07 1.06 1.10 1.13 1.10 1.07 1.03 0.97 0.95 0.93 0.94 0.96 1.02 1.06 1.06 1.05 1.03 1.04 1.04 1.04 1.06 1.10 1.15 1.16 1.20 1.16 1.13 1.16 1.22 1.27 1.29 1.27 1.29 1.31 1.31 1.30 1.34 1.36 1.37 1.37 1.36 1.38 1.43 1.45 1.45 1.46 1.46 1.45 1.48 1.50 1.49 1.47 1.42 1.42 1.45 1.44 1.41 1.38 1.39 1.40 1.33 1.27 1.24 1.21 1.19 1.18 1.14 1.10 1.07
0.95 0.96 0.96 0.95 0.95 0.98 0.98 0.99 1.00 1.03 1.04 1.05 1.07 1.10 1.13 1.12 1.09 1.05 1.03 1.04 1.07 1.06 1.00 0.96 0.93 0.92 0.91 0.91 0.91 0.91 0.94 0.96 0.98 0.99 1.00 0.97 0.93 0.92 0.91 0.92 1.04 1.10 1.11 1.14 1.15 1.16 1.15 1.13 1.17 1.22 1.28 1.33 1.33 1.34 1.33 1.34 1.36 1.38 1.40 1.41 1.41 1.43 1.47 1.48 1.41 1.36 1.40 1.42 1.45 1.46 1.44 1.44 1.35 1.36 1.41 1.39 1.35 1.34 1.35 1.31 1.28 1.23 1.18 1.11 1.06 1.03 1.00
0.91 0.91 0.91 0.90 0.91 0.93 0.95 0.97 0.96 0.94 0.95 0.99 1.03 1.05 1.06 1.07 1.05 1.02 1.02 1.03 1.01 0.99 0.98 0.97 0.96 0.94 0.93 0.93 0.93 0.93 0.94 0.96 0.97 0.98 0.99 0.97 0.94 0.91 0.88 0.92 1.03 1.06 1.08 1.08 1.10 1.13 1.16 1.16 1.14 1.15 1.20 1.29 1.35 1.36 1.37 1.38 1.36 1.35 1.35 1.37 1.39 1.40 1.41 1.37 1.38 1.43 1.41 1.39 1.40 1.42 1.45 1.44 1.44 1.40 1.39 1.39 1.34 1.33 1.28 1.28 1.28 1.25 1.21 1.14 1.09 1.08 1.08
0.85 0.84 0.84 0.85 0.86 0.88 0.90 0.91 0.91 0.90 0.90 0.92 0.94 0.95 0.96 0.97 0.95 0.94 0.95 0.96 0.96 0.95 0.94 0.94 0.94 0.94 0.93 0.92 0.92 0.91 0.92 0.95 0.95 0.96 0.96 1.01 1.05 1.05 0.99 0.97 1.01 1.01 1.02 1.02 1.02 1.03 1.07 1.12 1.16 1.19 1.20 1.21 1.25 1.31 1.32 1.32 1.32 1.32 1.32 1.34 1.36 1.35 1.36 1.38 1.37 1.37 1.36 1.32 1.35 1.33 1.35 1.41 1.43 1.41 1.37 1.36 1.36 1.32 1.30 1.22 1.26 1.29 1.28 1.20 1.17 1.14 1.14
0.81 0.80 0.80 0.79 0.80 0.81 0.83 0.83 0.82 0.82 0.81 0.83 0.86 0.86 0.86 0.86 0.87 0.87 0.87 0.89 0.90 0.90 0.88 0.87 0.88 0.88 0.88 0.89 0.88 0.88 0.88 0.89 0.90 0.91 0.89 0.90 0.95 1.03 1.07 1.02 1.01 1.01 1.00 1.01 1.02 1.02 1.02 1.05 1.10 1.12 1.14 1.12 1.10 1.09 1.10 1.15 1.22 1.26 1.27 1.25 1.25 1.27 1.30 1.31 1.33 1.32 1.32 1.31 1.31 1.31 1.31 1.32 1.32 1.33 1.28 1.33 1.33 1.31 1.30 1.30 1.26 1.32 1.28 1.28 1.25 1.22 1.20
0.77 0.77 0.78 0.78 0.79 0.79 0.79 0.79 0.78 0.77 0.79 0.81 0.81 0.80 0.80 0.79 0.79 0.80 0.80 0.80 0.81 0.82 0.82 0.81 0.80 0.80 0.81 0.82 0.82 0.84 0.86 0.87 0.88 0.89 0.85 0.84 0.85 0.92 1.03 1.03 1.00 0.98 0.97 0.97 1.00 1.02 1.02 1.01 1.00 1.02 1.03 1.01 1.01 1.01 1.00 1.00 1.01 1.05 1.10 1.13 1.16 1.17 1.19 1.20 1.23 1.26 1.25 1.23 1.22 1.22 1.25 1.26 1.27 1.27 1.26 1.25 1.26 1.23 1.24 1.25 1.27 1.27 1.25 1.25 1.23 1.19 1.16
0.73 0.74 0.74 0.73 0.72 0.74 0.76 0.77 0.79 0.79 0.78 0.77 0.77 0.79 0.80 0.79 0.79 0.79 0.79 0.78 0.78 0.79 0.79 0.80 0.79 0.79 0.79 0.78 0.78 0.79 0.79 0.80 0.83 0.85 0.87 0.88 0.86 0.89 0.96 0.95 0.95 0.96 0.94 0.92 0.93 0.95 0.98 0.99 0.97 0.96 0.96 0.97 0.98 0.97 0.96 0.95 0.96 0.97 1.00 1.02 1.04 1.07 1.08 1.11 1.14 1.16 1.16 1.15 1.14 1.15 1.15 1.17 1.18 1.20 1.21 1.19 1.19 1.17 1.16 1.19 1.19 1.18 1.17 1.15 1.14 1.13 1.11
0.73 0.73 0.74 0.73 0.73 0.73 0.74 0.75 0.75 0.74 0.74 0.72 0.71 0.72 0.77 0.79 0.79 0.78 0.79 0.79 0.79 0.79 0.80 0.81 0.81 0.82 0.83 0.82 0.80 0.77 0.75 0.74 0.76 0.80 0.81 0.82 0.85 0.85 0.86 0.87 0.87 0.88 0.88 0.89 0.89 0.90 0.93 0.93 0.95 0.95 0.94 0.94 0.94 0.95 0.95 0.95 0.94 0.93 0.94 0.95 0.96 0.96 0.98 1.00 1.02 1.02 1.04 1.05 1.07 1.07 1.07 1.08 1.11 1.13 1.13 1.13 1.14 1.15 1.17 1.18 1.17 1.14 1.12 1.09 1.08 1.07 1.05
0.72 0.71 0.72 0.72 0.72 0.73 0.73 0.72 0.71 0.70 0.70 0.71 0.73 0.75 0.77 0.79 0.79 0.78 0.79 0.78 0.78 0.77 0.77 0.77 0.77 0.79 0.80 0.80 0.79 0.80 0.78 0.73 0.66 0.70 0.78 0.78 0.79 0.79 0.79 0.79 0.80 0.81 0.80 0.81 0.84 0.86 0.87 0.87 0.89 0.90 0.91 0.91 0.91 0.92 0.93 0.94 0.94 0.93 0.93 0.93 0.93 0.93 0.93 0.92 0.93 0.92 0.91 0.92 0.93 0.94 0.96 0.97 0.99 1.00 1.01 1.04 1.06 1.07 1.09 1.08 1.06 1.06 1.04 1.01 0.99 0.98 0.98
0.71 0.70 0.71 0.71 0.71 0.71 0.70 0.69 0.68 0.68 0.68 0.71 0.73 0.73 0.76 0.76 0.77 0.77 0.76 0.75 0.74 0.74 0.74 0.74 0.75 0.75 0.75 0.76 0.76 0.76 0.77 0.78 0.73 0.70 0.76 0.76 0.75 0.74 0.75 0.75 0.75 0.74 0.73 0.72 0.73 0.77 0.81 0.82 0.83 0.84 0.87 0.89 0.90 0.90 0.90 0.91 0.93 0.93 0.92 0.92 0.92 0.92 0.91 0.90 0.90 0.90 0.89 0.87 0.87 0.87 0.88 0.88 0.89 0.91 0.91 0.91 0.91 0.93 0.96 0.97 0.97 0.97 0.96 0.96 0.95 0.94 0.93
0.69 0.68 0.65 0.64 0.65 0.65 0.65 0.65 0.64 0.66 0.67 0.69 0.69 0.71 0.73 0.72 0.69 0.69 0.71 0.69 0.70 0.70 0.70 0.71 0.71 0.71 0.72 0.72 0.73 0.73 0.74 0.74 0.74 0.74 0.74 0.74 0.73 0.71 0.70 0.70 0.71 0.71 0.70 0.69 0.69 0.70 0.72 0.73 0.74 0.76 0.77 0.79 0.83 0.86 0.87 0.88 0.89 0.89 0.91 0.92 0.92 0.91 0.91 0.90 0.88 0.88 0.87 0.86 0.84 0.83 0.82 0.80 0.80 0.80 0.80 0.80 0.80 0.81 0.82 0.84 0.84 0.84 0.84 0.83 0.82 0.81 0.80
0.68 0.65 0.63 0.63 0.64 0.63 0.64 0.63 0.64 0.66 0.66 0.67 0.69 0.70 0.70 0.68 0.67 0.69 0.70 0.69 0.68 0.66 0.65 0.65 0.66 0.67 0.66 0.66 0.67 0.67 0.67 0.66 0.67 0.67 0.65 0.65 0.66 0.66 0.65 0.64 0.64 0.64 0.64 0.64 0.64 0.64 0.65 0.66 0.68 0.68 0.69 0.71 0.74 0.77 0.80 0.82 0.83 0.84 0.85 0.86 0.87 0.89 0.89 0.89 0.88 0.87 0.86 0.85 0.84 0.83 0.83 0.82 0.80 0.78 0.77 0.77 0.77 0.76 0.76 0.76 0.76 0.76 0.76 0.75 0.75 0.74 0.73
0.60 0.60 0.60 0.60 0.60 0.60 0.60 0.61 0.63 0.64 0.65 0.67 0.68 0.67 0.65 0.64 0.63 0.62 0.64 0.65 0.62 0.60 0.60 0.59 0.58 0.62 0.64 0.62 0.62 0.62 0.63 0.62 0.61 0.60 0.59 0.58 0.57 0.57 0.57 0.57 0.55 0.55 0.55 0.55 0.55 0.56 0.57 0.59 0.61 0.62 0.63 0.64 0.66 0.69 0.72 0.75 0.77 0.79 0.81 0.83 0.84 0.85 0.85 0.87 0.87 0.87 0.86 0.85 0.83 0.81 0.79 0.79 0.79 0.77 0.77 0.77 0.77 0.76 0.76 0.76 0.76 0.77 0.77 0.76 0.76 0.76 0.75
Wind_Speed
35 34 33 33 32 34 35 36 38 37 35 36 39 40 35 32 32 32 28 27 28 27 25 24 22 20 20 19 18 18 19 20 22 23 24 24 24 24 24 26 29 30 28 28 27 28 28 29 31 31 30 30 29 29 29 29 29 30 30 30 31 30 30 30 30 29 28 28 27 27 27 27 28 29 29 29 30 30 29 29 29 28 27 27 26 25 25
36 35 34 33 32 33 34 35 37 38 38 38 39 39 37 36 37 34 29 29 30 28 27 26 24 23 21 18 17 18 19 20 22 23 24 24 25 25 25 26 28 30 30 28 28 28 28 29 30 31 31 30 30 29 29 29 30 30 30 31 31 31 31 30 30 30 29 29 28 28 28 28 28 29 30 30 31 31 30 29 29 28 28 27 27 26 26
35 34 33 31 31 32 34 36 36 37 40 40 40 39 37 36 37 34 30 31 31 28 26 25 25 25 22 20 19 20 21 21 21 21 23 24 24 25 25 26 27 29 29 28 27 27 28 29 30 31 32 31 31 30 30 29 30 30 30 31 31 31 31 31 31 30 30 30 29 29 29 29 29 29 30 31 31 31 31 30 30 29 28 28 28 27 26
33 32 30 30 32 32 34 38 39 39 40 40 40 38 36 36 36 34 34 33 31 28 25 25 25 24 24 23 22 22 22 21 20 21 23 23 24 25 25 25 26 27 28 28 27 27 28 29 30 31 32 32 31 30 30 30 30 30 30 31 32 32 31 31 31 31 31 31 30 30 29 29 29 30 31 32 32 32 32 31 31 30 29 29 28 28 27
33 32 29 30 31 31 35 41 42 40 38 38 38 36 36 36 35 35 36 35 31 27 24 24 25 25 25 25 24 24 24 22 21 23 24 24 24 25 25 25 25 26 26 27 28 28 27 28 30 31 31 31 32 31 31 31 30 30 30 31 31 31 31 30 31 31 31 32 31 31 30 30 30 30 31 32 33 33 33 32 32 31 30 30 29 29 28
33 32 30 29 30 33 37 39 38 38 38 37 36 36 35 35 34 34 34 33 31 28 25 24 24 24 23 23 23 24 24 23 24 24 24 24 23 23 24 25 25 26 26 26 27 28 29 29 31 31 31 31 32 32 32 31 31 31 31 31 31 31 30 30 31 31 31 32 32 32 31 31 30 31 31 32 33 34 33 33 33 32 31 31 30 30 29
33 31 29 29 30 34 37 34 32 36 38 36 35 35 34 34 35 34 33 32 32 30 27 24 23 21 20 20 21 22 22 22 23 24 23 23 22 22 22 23 24 25 26 26 27 28 29 29 30 30 31 32 32 32 31 32 32 32 32 31 31 31 31 31 31 31 32 32 32 32 32 32 31 31 32 33 33 34 34 34 34 33 33 32 31 31 30
32 30 30 31 32 33 34 31 29 30 32 32 34 35 34 34 34 33 33 34 32 30 28 25 23 22 21 19 19 21 22 21 20 21 22 21 21 22 22 22 23 23 25 26 26 27 28 29 29 29 31 32 32 32 32 32 32 32 32 33 33 32 32 32 32 32 32 32 33 33 33 33 32 32 33 33 34 34 34 34 34 34 34 33 32 32 31
32 31 32 32 33 32 31 30 29 29 30 32 34 35 35 35 33 33 33 34 33 30 28 26 25 24 22 20 20 21 22 21 20 20 20 20 20 20 21 21 21 22 23 24 25 26 27 28 29 30 30 30 31 31 31 31 32 32 32 33 33 33 33 33 33 32 33 33 33 33 33 33 33 33 33 33 34 34 34 35 35 35 34 34 33 33 32
32 32 32 31 30 31 30 30 30 30 32 33 33 33 34 34 32 32 32 32 31 29 28 28 27 23 21 22 24 23 22 21 21 20 20 20 19 19 20 20 20 21 23 24 24 25 26 28 29 29 29 29 30 30 31 31 32 32 33 33 33 33 34 34 34 33 33 33 34 34 34 34 34 34 34 34 34 34 35 35 35 35 34 34 34 34 33
34 32 31 30 30 31 30 28 29 31 32 33 32 31 33 33 32 31 30 29 28 26 27 29 28 23 22 24 25 24 22 22 22 21 20 19 18 19 19 20 21 21 22 24 24 24 26 27 28 28 28 29 30 31 32 32 32 32 33 33 33 33 33 34 34 34 33 34 34 35 35 35 35 35 35 35 35 35 35 35 35 35 35 35 35 34 34
36 33 32 31 31 31 29 26 28 31 33 33 32 31 32 33 31 30 29 28 26 24 24 26 26 25 24 25 24 23 22 22 21 21 21 20 20 20 20 21 21 21 21 22 24 25 26 28 28 28 28 29 30 32 32 33 33 33 33 33 32 33 33 33 33 33 33 33 35 36 36 35 35 35 35 35 35 36 36 35 35 35 35 35 35 34 34
36 34 32 31 31 31 27 26 28 30 31 33 33 32 32 31 30 28 28 27 26 24 22 23 25 25 25 24 24 22 21 20 20 20 21 21 21 21 22 22 22 22 21 21 23 25 27 28 28 29 30 30 31 32 33 33 34 34 33 32 32 33 33 33 33 33 33 33 35 36 37 36 36 36 36 36 36 36 36 36 35 36 36 35 35 35 34
34 34 32 30 31 30 25 24 27 28 29 31 32 32 30 28 28 27 26 25 24 23 21 21 22 23 23 23 22 21 20 19 19 20 20 21 21 21 22 22 22 23 23 23 22 24 26 28 29 30 31 32 33 33 34 35 36 35 34 34 33 33 34 35 34 34 34 34 34 35 37 38 37 37 37 37 37 37 37 37 36 36 36 35 35 35 34
32 32 31 30 31 29 24 23 24 24 26 29 30 30 29 27 26 26 26 25 25 23 22 22 22 22 21 21 21 21 20 19 19 19 19 19 20 21 21 22 23 23 24 24 24 24 24 26 28 30 32 34 34 35 36 37 37 36 36 36 35 35 35 36 36 36 36 35 34 34 35 37 38 38 38 38 38 38 39 38 37 37 36 35 35 34 34
33 33 32 31 31 28 24 23 24 23 23 26 26 27 27 26 26 26 26 26 26 25 24 23 22 21 21 21 21 20 20 20 19 19 19 19 20 20 21 22 23 23 24 25 25 25 24 25 26 28 30 32 34 36 38 39 38 38 38 38 37 37 37 37 38 38 37 37 37 36 36 36 37 38 39 39 39 39 40 40 39 37 36 35 35 35 34
35 34 32 30 29 27 24 24 25 23 21 21 21 23 25 25 26 26 25 25 26 25 25 24 23 22 21 20 20 20 19 19 20 20 20 20 20 21 22 22 23 23 24 24 25 26 25 25 26 27 28 29 31 33 35 37 37 38 38 39 39 39 39 39 39 39 40 40 40 40 40 39 39 39 39 39 39 40 41 41 40 38 37 36 35 35 33
36 34 33 31 29 27 25 23 23 23 22 20 20 22 23 24 25 26 26 25 25 24 24 24 22 22 22 21 20 20 20 20 20 20 21 21 21 22 22 23 24 24 25 25 25 26 26 26 27 28 29 30 31 32 34 35 36 37 38 39 40 40 40 40 40 41 41 42 42 43 43 43 42 41 41 40 40 40 41 41 40 39 38 37 36 35 34
36 34 34 34 31 28 25 22 21 22 22 21 20 22 23 23 23 25 25 25 25 24 24 23 22 22 22 21 20 20 20 20 20 21 21 22 22 23 23 24 25 26 26 27 27 27 28 29 29 30 30 31 32 33 34 36 37 38 39 40 41 41 41 41 42 42 43 43 44 44 45 45 45 44 43 43 43 42 42 42 42 42 41 39 38 37 36
36 34 34 34 32 30 27 25 23 22 22 21 20 21 23 22 20 21 23 24 25 24 24 23 22 21 21 20 20 20 20 21 22 22 23 23 23 24 24 25 26 27 27 28 28 29 30 30 31 32 32 33 33 34 35 36 37 39 41 42 42 43 43 43 43 44 44 45 45 45 45 46 47 47 46 45 45 45 45 45 44 43 42 41 40 39 38
34 34 34 33 32 31 28 27 26 25 24 22 20 19 20 20 18 18 18 19 22 23 23 23 22 21 20 20 20 20 20 21 22 23 24 25 25 25 25 25 26 26 27 28 29 29 30 31 32 33 34 34 34 35 35 36 37 39 40 42 43 43 44 44 45 45 46 46 47 47 46 46 47 48 49 49 48 48 48 47 47 46 45 44 42 39 38
35 34 35 34 32 31 29 28 27 26 25 23 20 18 18 18 17 17 17 17 18 19 20 21 20 20 20 20 19 19 20 21 22 23 24 25 26 26 26 26 27 27 27 28 28 29 30 31 32 33 34 35 35 35 36 37 38 39 40 41 42 43 44 44 45 46 46 46 47 47 47 47 47 47 48 49 50 51 51 50 49 48 47 46 43 41 38
35 35 36 34 32 31 30 29 27 26 26 25 21 18 17 16 16 17 19 19 18 17 18 18 19 19 19 19 19 19 20 21 22 23 24 25 25 26 26 27 27 27 27 28 28 29 29 30 31 32 33 34 35 36 36 37 38 40 40 41 42 43 44 45 46 46 47 47 47 47 48 48 48 47 46 47 47 48 50 50 49 47 46 45 43 41 38
32 33 35 35 32 31 31 30 27 26 27 26 23 19 16 14 14 16 19 19 19 18 17 16 17 18 18 18 19 19 20 21 22 23 23 24 24 25 25 26 26 26 26 27 27 28 29 29 30 31 31 32 33 34 35 36 37 39 40 41 43 44 45 46 47 47 47 47 46 46 46 46 47 47 46 46 45 45 46 48 48 46 44 42 41 39 37
31 31 33 34 33 32 32 30 28 27 27 26 24 22 17 14 13 14 16 18 18 18 17 16 16 17 17 18 19 19 20 21 21 22 22 22 23 23 23 24 24 24 25 25 26 27 28 28 29 29 29 30 31 32 33 34 35 36 38 39 41 44 45 46 47 47 46 45 44 44 44 44 46 48 49 48 47 45 45 45 44 42 40 38 38 37 35
32 30 31 33 33 32 31 30 28 27 27 26 25 24 21 16 13 12 12 14 16 16 15 15 16 16 17 17 18 18 19 20 21 21 21 21 21 21 21 22 22 22 23 23 24 25 26 26 27 27 28 29 29 30 30 31 32 33 34 35 37 39 42 45 48 49 47 45 44 43 43 43 45 49 51 50 49 47 46 45 44 41 38 35 35 36 33
30 30 30 31 31 31 31 30 28 28 27 26 25 26 24 21 18 15 13 13 15 16 15 15 15 16 16 17 18 18 19 19 19 19 19 19 20 20 19 19 19 20 20 21 22 22 23 23 24 25 25 26 27 27 27 28 29 29 30 32 34 35 37 41 44 45 45 44 41 40 40 41 43 45 46 46 46 47 46 44 44 43 39 35 34 34 32
25 27 29 29 29 28 28 28 27 26 25 25 25 25 25 24 22 19 16 15 15 16 15 15 16 16 16 16 16 17 17 17 17 17 17 18 19 19 18 18 18 18 18 19 19 19 19 19 20 21 22 22 23 23 24 25 26 28 29 31 32 33 33 33 32 33 35 37 36 35 35 35 35 35 35 36 38 42 43 41 40 41 40 37 34 33 31
21 24 26 27 27 26 25 24 24 23 22 23 23 23 23 23 22 20 18 17 16 16 15 15 15 14 14 14 14 15 16 16 16 16 16 16 17 18 18 17 17 17 17 17 17 17 17 17 18 19 19 19 19 20 21 22 23 24 26 26 27 28 27 26 23 24 27 28 30 30 29 28 28 28 28 28 29 33 37 36 35 35 37 38 36 33 31
19 22 23 24 25 26 24 22 22 20 20 21 22 21 22 22 21 20 20 19 18 16 16 15 15 14 14 14 15 15 16 16 16 16 15 15 15 16 16 17 17 17 16 16 16 16 17 17 17 17 17 17 17 17 18 19 20 20 20 20 19 19 18 15 14 16 18 20 22 22 23 24 25 25 25 24 23 26 30 31 31 31 33 33 33 32 30
18 21 22 22 22 24 24 22 21 20 19 19 19 19 19 19 19 20 20 19 18 17 17 16 16 16 16 16 16 16 15 15 15 15 15 15 14 14 14 15 15 15 15 15 16 16 16 16 16 16 15 16 16 16 16 16 16 16 16 15 14 13 10 7 6 8 10 13 15 16 17 19 20 21 23 23 23 23 25 26 28 29 29 29 28 28 28
18 19 20 20 20 20 22 22 21 19 18 17 17 17 17 18 18 18 18 17 17 17 17 17 16 16 17 17 17 16 16 15 15 15 15 15 14 14 14 14 14 14 14 14 14 14 14 14 14 14 14 15 14 14 14 14 14 14 14 12 10 9 7 7 7 8 10 11 12 12 13 14 15 18 21 23 24 24 24 25 25 26 26 25 25 25 25
17 18 19 20 19 19 20 20 20 19 17 17 16 17 17 17 17 17 17 16 16 16 17 17 17 17 17 17 17 18 17 17 16 16 15 15 14 14 14 14 13 12 12 13 12 12 12 12 12 13 14 14 14 14 14 14 13 11 10 9 7 6 6 5 7 9 11 12 12 12 13 15 16 18 20 21 22 23 23 23 23 23 23 23 23 23 24
15 17 19 21 21 19 19 19 18 17 17 16 15 15 15 16 16 15 15 15 15 15 16 16 16 16 15 15 16 16 17 16 16 15 15 15 15 14 14 13 13 12 11 11 11 11 12 12 12 13 13 13 13 13 13 12 10 9 8 7 7 7 6 6 6 7 8 10 12 12 13 15 16 16 18 19 19 20 20 20 20 20 20 21 22 22 23
13 15 18 20 21 20 18 17 17 16 15 14 15 15 15 14 13 13 13 13 14 14 14 14 13 13 13 14 14 14 14 14 14 13 14 14 14 14 14 13 12 12 11 11 11 12 12 13 13 12 12 12 11 11 11 10 10 10 9 9 9 9 9 9 8 7 7 8 10 11 12 13 14 15 16 17 17 18 18 18 19 19 20 21 21 21 22
12 14 15 17 19 19 17 15 15 15 14 13 14 15 14 13 12 12 11 11 11 12 11 11 11 11 11 11 11 11 11 11 11 11 12 12 13 13 13 13 13 13 12 12 12 13 13 13 13 12 12 11 11 11 11 11 11 11 11 10 10 10 10 10 10 9 9 8 9 10 11 12 13 14 15 16 16 16 16 17 18 20 20 21 21 21 21
12 14 14 15 16 17 15 13 13 14 14 14 14 14 13 12 12 11 10 9 9 9 9 8 8 8 8 8 8 8 8 8 9 9 10 10 11 11 12 12 13 13 14 14 14 14 14 13 13 12 12 11 11 11 11 11 11 11 11 10 10 11 11 11 10 11 11 11 10 10 11 12 12 13 14 15 16 16 17 17 18 19 20 20 21 21 21
14 15 15 15 16 16 14 12 12 12 13 13 13 12 11 11 11 10 8 7 7 6 6 6 5 5 5 5 5 5 6 6 6 7 7 7 7 7 9 10 11 11 12 13 14 14 14 14 13 13 13 12 12 12 11 11 11 11 12 11 12 12 12 12 12 13 14 14 14 13 13 14 15 15 15 15 15 16 17 17 18 19 19 20 20 20 20
17 17 17 17 17 17 15 14 13 13 12 12 11 11 10 10 9 8 7 6 6 5 5 5 4 3 3 3 4 4 4 4 5 5 5 5 5 5 6 7 7 8 9 10 11 12 13 14 14 15 14 14 14 13 13 12 11 12 12 12 12 12 13 13 13 14 15 16 16 16 15 15 15 15 14 14 15 15 16 17 18 18 18 19 19 19 20
21 20 19 18 18 17 16 15 15 14 12 11 10 10 10 9 8 8 7 6 5 5 5 4 4 4 3 3 3 3 2 2 3 3 3 3 3 4 4 5 5 6 6 7 8 9 10 12 13 14 15 15 16 16 15 14 14 14 14 13 13 13 13 14 14 14 14 15 16 16 16 16 16 15 15 15 15 16 16 17 17 18 19 19 19 19 19
20 20 19 18 17 16 15 15 14 13 11 11 11 11 10 10 9 9 8 7 5 5 5 4 4 3 3 2 2 1 1 1 1 2 2 3 3 4 4 5 5 6 6 6 7 7 8 8 9 10 11 13 14 14 15 15 15 15 15 14 14 13 13 13 13 14 14 14 15 16 17 17 17 17 17 17 17 17 17 17 17 17 18 18 17 17 18
19 19 18 17 16 16 15 14 13 12 12 11 11 11 10 9 8 8 7 6 5 5 4 3 3 2 1 1 0 0 1 1 1 2 2 3 4 4 5 5 5 5 5 5 5 6 6 6 7 7 8 9 10 10 11 13 13 13 13 13 13 13 13 13 13 13 12 13 14 15 16 17 18 18 18 18 18 17 17 17 16 16 17 17 17 17 17
18 18 17 16 15 14 14 14 13 12 11 11 10 9 8 7 7 7 6 5 5 4 3 3 2 2 1 1 0 0 1 2 2 2 3 3 4 4 4 5 5 5 5 5 5 5 5 6 6 5 6 6 6 7 8 9 10 11 12 12 11 11 12 12 13 13 12 12 12 13 14 15 17 17 16 17 17 17 17 17 17 17 17 17 17 17 17
17 16 16 15 14 14 13 13 12 12 11 10 10 9 8 7 7 6 5 5 4 3 3 2 2 2 1 1 0 0 1 2 2 3 3 3 4 4 4 4 4 5 5 5 5 5 6 6 5 5 5 5 5 6 6 7 8 9 11 11 11 11 11 11 12 12 13 12 12 12 13 13 14 14 14 14 15 16 16 17 18 18 18 18 18 18 19
15 15 15 14 14 13 13 12 12 11 11 10 9 8 8 7 6 6 5 4 4 3 3 2 2 2 1 1 1 1 1 2 2 3 3 3 3 4 4 5 5 5 5 5 5 6 6 6 6 6 6 6 6 6 6 7 7 8 9 10 11 12 13 13 13 13 13 13 13 13 14 14 14 14 15 15 15 16 17 19 20 20 20 20 20 20 21
15 14 14 14 13 12 12 12 11 10 9 8 7 6 6 5 5 4 4 4 3 3 3 3 2 2 2 1 1 2 2 2 3 3 3 3 3 4 5 5 5 5 6 6 6 7 7 7 7 7 7 7 6 6 6 7 7 7 8 8 9 10 12 13 13 14 14 14 14 15 15 15 16 17 18 18 18 18 19 20 21 22 22 22 22 22 22
14 14 13 12 12 11 11 10 10 9 8 7 6 5 4 4 3 3 3 3 2 2 2 2 2 2 3 3 3 3 3 3 4 4 4 4 4 4 5 5 5 6 6 6 6 7 7 7 7 8 8 7 7 7 7 7 7 7 8 8 8 9 10 11 12 13 14 15 15 16 16 17 18 18 19 20 20 21 21 22 23 23 23 22 23 23 22
13 13 12 12 11 10 10 9 8 7 6 6 5 4 4 4 3 3 2 2 2 2 3 3 3 4 4 4 4 4 5 4 4 5 5 6 5 6 6 6 7 7 7 7 7 8 8 8 8 8 9 9 9 9 9 9 9 9 9 9 9 9 10 10 11 12 13 13 14 15 16 17 17 18 19 20 20 21 22 23 23 23 23 23 23 23 22
12 11 11 11 10 9 9 8 6 5 5 5 4 3 3 3 3 2 2 2 2 2 2 3 3 4 4 5 5 5 5 5 5 5 6 6 6 7 8 8 8 9 9 9 9 9 9 9 9 9 9 10 10 10 11 11 11 11 11 11 11 11 11 12 12 13 13 14 14 15 15 16 17 17 18 18 19 20 21 21 22 22 22 23 23 22 23
10 9 9 9 8 8 7 6 5 5 5 4 3 2 2 2 2 1 1 1 1 1 2 3 3 4 5 5 5 6 6 6 6 7 7 8 8 8 9 9 10 10 10 10 11 11 11 10 10 10 10 10 11 11 11 12 12 12 12 13 13 13 14 14 14 14 14 15 15 16 16 16 17 18 18 18 18 19 20 20 21 21 21 21 22 22 22
8 7 7 7 7 7 7 7 6 6 5 5 4 3 2 2 2 2 3 3 3 3 4 4 5 6 6 6 7 7 7 8 8 8 9 10 10 10 11 11 11 11 11 11 12 12 12 12 12 12 12 12 12 12 12 12 12 13 13 13 14 14 15 15 15 16 16 16 16 17 17 17 18 18 18 19 19 19 20 20 21 21 21 22 22 22 22
8 7 7 7 6 7 7 7 7 7 6 6 5 4 4 4 3 4 5 5 5 6 6 6 7 7 8 8 9 9 10 10 10 10 11 11 11 12 12 12 12 12 12 13 13 13 13 14 14 13 13 14 14 14 14 14 14 14 14 14 15 15 15 16 16 17 17 17 17 17 18 18 18 19 19 20 20 20 20 21 21 22 22 22 23 23 23
Wind_Direction
243 242 243 241 238 237 233 229 228 228 227 226 228 231 231 228 233 239 238 234 237 242 245 246 246 245 246 246 242 241 243 242 241 238 236 236 236 235 233 230 226 224 224 225 224 223 224 223 222 221 221 222 223 223 224 223 223 224 225 227 228 229 230 231 233 234 234 235 236 236 236 235 233 230 229 229 228 228 228 228 229 230 229 230 231 232 235
245 243 243 241 239 238 236 232 229 227 228 228 229 231 230 230 235 239 238 236 238 241 243 244 244 242 242 242 241 244 246 244 243 241 236 236 237 236 234 230 225 222 224 225 225 225 225 224 223 222 223 223 224 224 224 224 225 226 226 228 229 230 231 233 234 233 233 234 236 236 236 236 235 232 230 229 229 228 228 229 229 230 230 230 231 233 235
245 241 241 241 241 239 237 234 231 228 229 229 231 231 230 232 236 238 237 237 240 244 245 247 246 244 243 243 241 242 244 243 242 242 238 238 239 238 235 231 225 223 224 225 226 226 227 227 226 225 225 226 226 226 226 226 227 227 227 229 229 230 232 233 233 233 233 233 234 236 237 237 236 234 232 230 229 229 229 229 229 230 230 230 232 234 236
243 239 240 244 244 242 237 234 231 229 228 229 231 231 230 231 233 234 236 238 240 243 245 249 251 247 243 241 241 242 244 242 238 237 238 238 239 238 237 232 226 225 225 225 226 227 228 228 228 228 228 228 228 228 227 228 229 228 228 228 229 231 232 233 232 232 233 234 234 235 237 237 237 235 233 231 230 230 230 230 230 231 231 231 233 235 237
242 239 242 247 245 239 235 232 230 230 230 230 231 232 232 232 232 233 236 239 240 241 242 245 249 248 243 240 241 243 246 245 241 239 241 242 242 239 236 232 228 227 227 227 228 229 230 229 229 229 229 229 229 229 229 229 229 228 228 228 229 231 231 232 232 233 234 234 235 235 236 237 237 236 234 233 232 231 231 231 231 231 232 232 234 237 239
242 242 245 247 240 233 233 233 230 230 232 232 231 232 233 233 233 236 239 240 240 239 238 239 243 245 242 238 237 240 244 247 247 246 246 248 247 242 237 233 231 230 229 231 233 233 232 232 231 231 230 230 230 230 229 228 228 228 228 228 229 230 231 233 234 234 234 235 236 236 236 237 237 236 236 235 233 232 232 232 232 232 233 233 235 238 240
242 243 243 240 234 231 234 236 233 231 232 231 231 233 235 234 234 236 237 238 238 237 236 239 241 238 236 234 235 239 243 245 247 247 246 247 248 244 239 236 235 234 233 234 235 234 234 233 233 233 232 231 231 230 229 229 228 228 228 229 230 232 233 234 235 235 235 236 236 236 235 236 237 237 237 236 234 233 233 233 233 234 234 235 236 239 241
239 238 234 232 235 238 238 236 234 235 233 230 229 232 235 236 234 234 235 236 237 236 234 235 234 231 232 236 238 241 243 244 246 247 246 246 246 244 241 239 237 236 235 235 235 235 234 233 232 232 233 232 231 230 230 230 230 230 231 232 234 235 235 235 236 236 237 237 237 236 235 235 236 237 237 236 235 234 234 234 234 235 235 236 237 239 241
234 233 232 234 239 243 237 230 229 230 229 229 229 231 234 235 233 233 234 235 235 234 232 230 228 229 234 240 243 245 246 245 245 245 245 246 246 243 242 240 238 237 237 237 238 238 236 234 232 232 232 232 230 230 230 232 233 233 233 235 237 237 237 238 238 238 237 238 237 236 235 235 236 237 236 236 235 234 234 234 235 235 236 236 237 239 241
231 231 232 232 234 234 229 227 230 230 228 229 229 229 232 234 233 233 232 232 233 232 230 227 227 230 235 239 243 247 248 246 244 243 243 244 243 241 240 241 242 243 242 240 240 240 238 236 234 232 232 231 230 231 232 233 234 235 235 237 238 239 239 240 240 239 238 238 237 236 235 235 236 237 236 236 235 235 235 235 235 235 235 236 238 240 241
229 229 228 226 227 228 228 231 235 235 234 231 227 227 230 232 234 233 231 231 233 232 229 227 228 231 232 234 239 244 247 246 244 243 243 243 240 238 238 240 244 247 247 245 241 240 239 238 236 234 233 233 233 233 234 235 236 237 238 238 239 240 240 241 241 240 238 238 237 236 235 236 236 237 236 236 235 235 235 235 236 235 235 236 238 240 242
227 226 226 226 226 228 231 236 238 239 237 228 221 224 229 231 233 233 230 231 233 233 230 229 230 232 231 231 235 239 241 241 241 241 243 244 242 241 241 243 246 249 250 248 244 241 240 239 236 235 235 236 237 237 237 237 237 238 239 240 241 242 242 242 240 239 238 238 238 237 236 236 236 236 236 236 236 235 235 235 235 235 236 237 239 240 242
223 222 225 227 227 227 231 238 241 241 234 222 217 223 229 230 231 230 227 227 228 228 228 229 229 230 228 228 231 234 235 237 238 239 241 242 243 244 245 247 249 250 251 249 246 244 242 239 237 237 238 238 239 240 239 238 239 240 241 243 244 244 243 242 240 238 238 240 239 239 238 237 237 236 236 236 236 236 235 235 235 235 236 238 239 241 242
220 220 223 228 227 225 229 237 239 235 225 217 218 225 228 228 228 225 222 222 220 217 218 220 221 222 223 225 227 230 233 236 238 240 241 242 244 246 247 249 251 252 251 251 250 249 246 243 241 241 241 242 243 242 241 241 241 242 243 245 246 245 244 243 241 239 239 240 240 240 239 238 237 237 237 236 236 236 235 235 235 235 236 237 239 241 242
217 218 221 224 224 223 227 232 231 225 218 217 221 224 223 224 225 224 221 220 218 214 212 214 216 218 220 222 225 228 232 235 238 241 243 244 245 247 248 250 252 252 252 253 254 254 252 249 245 243 243 244 245 244 244 244 245 246 246 247 247 245 244 244 242 240 240 241 240 240 240 239 237 237 236 236 236 235 235 235 235 235 236 237 238 240 242
214 214 216 219 220 221 223 222 220 217 217 218 219 217 218 222 224 223 221 220 218 215 212 213 215 218 220 223 226 228 231 234 238 241 244 246 247 249 250 252 254 254 253 254 256 256 256 255 253 250 247 246 246 246 246 247 248 248 248 248 247 246 245 245 243 242 242 242 242 241 241 240 239 237 236 236 236 236 236 235 235 235 236 236 238 239 241
215 215 215 216 216 218 218 216 218 218 215 213 213 213 216 221 223 222 220 218 216 214 211 211 213 217 220 223 226 228 231 235 238 241 244 247 250 252 254 255 257 256 255 255 256 257 257 258 257 256 253 250 249 249 249 249 249 249 249 247 246 246 246 245 244 243 244 244 244 243 241 240 239 238 236 236 236 237 236 235 235 235 235 235 237 238 241
215 215 215 213 211 212 211 210 214 217 213 209 212 214 216 220 222 220 218 216 215 213 211 210 212 216 219 222 226 230 234 238 241 243 245 248 251 254 257 258 260 259 257 257 257 258 260 260 259 259 258 256 255 254 254 253 251 250 249 247 246 246 247 247 246 245 245 246 245 244 242 241 240 239 237 235 236 237 236 234 234 234 234 234 235 237 240
212 212 212 212 208 207 206 203 206 215 214 211 213 217 217 218 220 220 217 216 215 214 214 213 213 217 221 224 228 233 236 240 243 245 247 249 252 255 258 261 263 262 259 259 259 260 261 262 262 261 260 260 260 259 257 255 254 252 250 249 248 248 247 247 247 246 246 246 246 245 244 242 240 239 237 236 236 236 236 235 234 234 233 233 234 236 240
210 209 210 210 207 207 208 206 205 211 215 215 218 219 216 216 221 223 220 217 215 215 217 218 217 220 225 229 232 236 239 243 246 248 249 252 254 257 259 261 262 262 261 261 261 261 262 262 263 263 262 261 261 261 259 257 255 253 252 250 250 249 248 248 248 248 248 247 246 245 244 243 241 240 238 237 236 235 236 236 234 233 233 232 234 236 239
208 208 207 206 207 208 211 212 209 209 212 215 217 215 210 210 218 223 220 215 213 214 217 220 221 223 229 234 237 239 243 246 249 251 253 254 256 258 260 262 263 263 262 262 262 263 263 263 263 264 264 263 262 262 260 259 257 255 253 252 251 250 249 249 249 249 248 247 245 245 244 243 243 242 240 238 236 235 236 237 235 233 232 232 234 236 237
208 208 205 204 206 208 211 214 212 209 209 211 212 210 208 208 215 221 219 213 211 213 217 221 222 224 230 237 241 243 246 250 252 254 256 257 259 260 262 264 265 265 265 265 264 265 265 265 265 265 265 265 264 263 262 260 258 257 255 254 253 252 251 251 250 250 249 247 245 244 243 242 242 242 242 240 239 236 236 236 235 233 231 230 231 233 234
208 208 205 204 205 206 207 209 209 207 207 210 211 213 215 217 223 226 223 217 216 218 221 224 225 227 231 238 242 245 249 253 256 258 260 261 262 264 265 266 266 268 268 267 267 267 267 267 267 267 267 266 265 264 263 262 261 259 257 256 256 255 254 253 251 250 249 247 246 244 243 242 241 240 239 239 239 238 236 235 235 235 233 229 228 229 230
209 208 205 206 206 206 205 206 207 206 207 209 211 213 218 223 227 228 225 221 220 222 225 228 231 232 235 241 245 249 253 258 261 263 263 264 265 266 267 267 267 268 270 270 269 268 268 269 269 268 267 267 266 265 265 264 263 262 261 260 259 258 256 254 253 251 249 247 246 244 243 242 241 239 237 237 237 237 237 236 236 236 235 230 225 224 225
208 208 207 208 208 207 207 209 211 211 210 210 212 214 217 224 228 228 226 223 221 223 227 231 235 239 242 248 252 255 257 261 265 265 265 265 266 266 266 267 267 268 269 269 269 269 269 270 270 269 268 268 268 267 266 265 265 264 264 263 263 262 259 256 252 249 247 245 245 244 243 244 243 240 236 235 235 234 235 236 236 235 233 228 222 221 223
207 209 210 208 207 207 208 211 214 215 213 212 213 215 219 226 230 228 223 220 220 224 229 233 239 245 249 253 258 259 260 261 263 264 263 264 265 265 266 267 267 268 268 269 270 271 271 272 272 271 270 269 267 267 266 266 266 265 265 265 265 265 264 262 256 248 243 241 241 242 242 245 247 244 238 234 232 231 231 234 234 232 230 227 222 219 221
207 210 211 209 206 207 210 212 214 216 217 216 215 217 222 228 231 232 231 230 228 228 232 239 245 250 254 258 261 261 261 261 262 262 263 263 265 267 269 270 269 270 271 272 275 276 276 275 273 272 271 269 267 267 267 268 269 269 269 270 269 268 272 274 265 250 241 238 239 240 242 245 248 247 240 233 230 228 228 229 229 227 226 224 220 217 218
205 208 210 209 206 207 210 211 211 215 219 219 218 220 225 229 230 233 238 240 238 236 241 249 253 256 260 262 261 259 259 260 262 264 265 266 267 269 271 272 271 271 272 274 277 278 277 276 274 274 274 273 272 272 272 273 275 273 272 274 273 270 275 279 267 247 238 237 236 237 240 241 242 241 237 232 229 226 223 222 223 222 220 219 218 217 218
202 206 208 207 204 203 206 207 207 209 214 216 216 220 225 226 228 231 236 240 241 242 247 254 257 259 261 261 260 261 262 264 266 266 267 269 270 270 269 269 269 269 270 271 273 274 276 278 279 280 281 279 278 278 277 276 278 277 275 275 274 271 275 277 263 245 239 237 234 234 235 234 232 231 231 232 230 222 216 215 215 214 213 215 218 219 220
198 198 198 200 201 200 202 204 204 205 208 210 213 217 220 222 224 229 234 239 241 242 245 250 254 259 261 262 265 269 269 269 269 267 267 270 271 270 268 266 265 266 267 268 270 272 276 279 281 282 283 283 283 283 280 279 281 283 281 279 277 275 276 274 259 243 237 233 229 227 226 225 225 223 223 224 219 210 206 206 205 205 208 212 216 218 219
191 188 188 192 196 198 199 201 203 205 206 207 210 212 215 218 223 228 232 236 239 240 243 248 254 259 262 263 267 271 271 270 270 267 265 266 269 269 268 267 266 266 267 269 271 273 276 278 280 282 284 284 283 284 283 283 286 290 289 285 279 273 267 254 230 218 214 211 209 208 208 211 215 213 210 208 203 197 196 198 199 202 207 211 214 217 221
188 185 185 187 189 192 196 199 202 205 206 206 206 209 211 214 218 223 227 232 236 239 244 249 254 259 262 264 265 265 267 270 271 266 262 261 264 266 266 266 267 269 270 271 273 275 277 278 279 279 280 281 280 282 286 288 289 290 288 283 274 263 250 233 213 199 191 187 188 190 190 193 194 193 192 193 193 193 196 199 201 205 209 211 215 220 223
187 188 190 190 188 187 190 194 198 202 204 203 204 206 209 210 212 216 222 228 233 238 243 248 253 258 261 263 263 263 264 267 268 264 259 258 259 262 263 264 266 269 271 273 275 275 277 279 279 278 278 278 277 279 284 289 290 285 278 271 261 250 242 231 216 203 195 191 188 186 183 182 180 179 180 183 187 191 196 201 205 208 211 215 218 220 222
184 189 192 192 189 186 185 188 192 196 199 200 203 208 210 211 212 216 223 229 235 241 246 251 255 258 259 262 263 261 261 263 263 261 257 256 256 259 260 262 264 268 273 276 276 275 275 277 278 278 278 278 278 278 280 283 283 277 268 261 251 242 238 235 225 214 206 199 194 190 188 186 185 183 183 186 191 195 200 205 208 211 214 216 218 220 222
176 182 187 190 189 186 184 184 187 190 193 195 201 207 212 213 214 218 225 231 237 241 244 248 251 254 257 260 259 257 257 260 261 260 260 259 258 258 259 260 263 267 272 278 279 276 275 276 278 277 276 275 276 277 276 274 271 268 266 260 250 241 241 240 234 226 218 207 199 196 195 196 196 196 196 198 201 204 206 209 211 213 215 217 219 222 224
167 171 177 184 186 186 186 187 188 189 188 188 192 199 204 207 210 215 222 229 233 236 238 242 245 249 253 253 251 250 253 257 259 261 263 264 262 260 259 260 262 264 267 273 276 275 272 273 276 276 273 270 271 273 273 272 269 265 261 254 246 242 244 243 237 230 225 219 211 205 201 200 202 204 205 205 208 210 211 213 215 217 219 221 223 225 226
157 158 161 168 173 176 178 181 182 183 181 180 183 189 195 200 206 212 219 226 229 231 234 237 239 242 244 244 243 245 250 254 256 259 261 262 262 262 262 263 264 265 267 269 271 270 269 270 272 273 270 268 267 266 266 265 261 257 256 254 251 248 247 244 239 234 230 228 226 221 214 210 210 212 213 215 217 218 220 220 221 222 224 225 227 228 229
134 140 145 151 156 158 156 155 159 163 166 170 176 182 188 195 202 208 212 215 216 216 217 220 225 230 233 234 237 243 247 248 250 254 258 261 264 265 265 265 266 265 265 265 266 266 265 266 267 267 266 265 261 258 258 257 256 256 259 259 257 254 252 248 246 243 239 236 236 236 235 233 230 225 223 223 223 223 223 223 223 225 227 229 230 231 232
114 122 128 135 142 146 144 142 144 147 150 156 166 174 180 189 197 202 202 200 198 196 195 199 206 214 220 225 231 237 242 243 247 253 259 264 268 269 269 269 268 266 266 267 267 267 267 267 265 263 262 259 256 254 254 255 255 258 260 260 259 258 255 253 252 248 243 239 239 240 241 238 232 226 224 225 225 225 226 227 227 228 230 231 233 234 234
105 110 116 122 130 139 143 145 146 147 147 149 156 162 169 175 178 177 175 176 180 182 182 184 190 199 208 217 224 229 237 248 255 259 265 272 278 280 279 281 281 279 280 281 280 278 278 275 269 265 263 259 255 254 255 256 257 259 261 262 261 259 257 256 255 250 245 243 242 240 237 233 231 229 229 229 231 234 235 234 233 232 232 233 235 235 235
99 104 110 116 122 130 138 145 148 148 148 148 149 152 154 154 151 149 150 153 156 161 164 167 174 184 194 204 212 221 241 268 280 286 291 292 285 276 274 279 284 286 292 299 299 296 294 290 282 275 269 264 260 258 258 258 259 260 260 261 261 260 258 258 256 252 248 245 242 239 236 234 234 235 236 236 237 238 237 236 236 234 231 230 230 231 232
93 97 103 108 113 118 124 131 136 139 139 139 140 140 142 142 141 142 145 146 144 144 147 148 146 147 150 160 201 290 309 309 311 315 315 307 294 283 277 279 285 290 301 311 312 308 305 302 296 289 281 273 268 265 263 261 261 261 260 260 260 259 256 254 252 250 248 245 242 241 240 237 236 237 239 239 238 238 235 230 227 225 224 224 226 229 233
86 89 93 98 103 108 111 115 119 122 124 125 125 125 126 129 131 133 135 137 135 132 127 118 108 103 102 97 70 336 322 320 318 317 318 320 317 308 295 289 293 305 314 316 313 312 311 306 301 301 298 288 281 276 270 265 263 262 259 258 258 257 254 252 250 249 247 244 241 240 240 239 239 241 241 237 234 232 229 221 215 214 219 224 230 235 239
83 84 87 91 95 100 104 107 108 110 112 113 112 112 113 116 118 120 123 124 122 115 108 100 93 93 96 96 110 269 304 319 319 311 306 309 315 317 313 308 309 317 323 319 312 310 310 304 301 305 308 305 298 291 280 271 266 262 259 257 256 255 254 253 251 249 249 248 244 240 238 239 239 238 235 230 225 222 219 216 216 220 226 232 237 242 245
82 82 83 86 89 94 100 104 106 107 109 108 106 105 106 109 110 111 110 107 102 96 92 89 85 83 81 78 74 57 13 351 335 319 305 296 300 310 317 317 315 318 324 324 316 311 310 309 308 308 307 306 303 296 287 279 274 269 265 261 258 255 253 253 252 252 252 253 251 246 243 243 240 236 233 232 229 226 226 228 231 234 238 241 244 247 248
78 78 79 80 83 86 92 96 98 99 99 100 100 100 101 103 103 100 96 93 90 82 75 70 62 50 36 25 16 9 5 3 357 347 333 321 318 324 328 327 324 325 328 326 317 311 312 315 315 313 310 308 303 295 288 284 280 276 272 269 265 260 257 255 255 255 254 252 250 248 247 246 244 241 239 239 238 237 237 240 242 243 245 247 248 248 248
72 72 72 73 75 77 80 83 83 81 81 84 89 91 88 87 87 85 80 76 70 57 48 39 25 9 357 346 335 324 319 323 332 334 329 324 323 327 329 329 328 329 329 325 319 315 315 316 315 313 312 309 302 293 289 288 285 282 280 278 273 269 264 260 258 257 256 253 251 250 250 249 247 244 242 242 242 242 242 244 245 246 246 247 247 247 247
69 68 66 66 67 67 69 71 70 68 68 71 74 74 73 73 72 68 62 56 46 32 19 9 359 351 346 342 337 328 318 312 311 313 313 312 312 313 314 318 322 324 321 317 315 315 315 313 311 309 308 304 297 291 289 289 287 285 284 282 279 277 274 269 265 263 261 259 257 256 255 254 252 249 247 246 246 245 245 246 247 247 247 247 247 248 248
66 65 64 63 62 61 62 61 59 56 54 53 52 53 58 62 60 52 45 44 43 27 9 358 351 344 338 335 333 330 326 321 314 309 308 309 309 307 306 308 312 315 312 307 305 308 310 310 309 306 303 297 292 289 287 286 285 284 283 282 281 279 277 275 273 270 268 266 265 264 262 261 259 257 254 252 251 249 248 249 249 250 250 250 251 251 252
55 55 54 53 53 51 49 46 41 36 31 27 21 14 14 26 30 15 355 346 344 338 334 334 331 327 324 321 319 317 316 316 314 312 310 309 309 308 307 306 307 309 308 305 303 304 306 306 306 304 300 295 292 290 288 286 284 283 282 281 280 278 278 277 276 274 272 271 269 268 266 264 263 262 260 259 256 254 253 252 252 252 252 252 253 254 254
43 42 39 38 36 33 28 23 17 13 9 3 355 346 342 342 339 331 325 320 313 307 309 314 317 315 313 312 310 309 308 307 307 308 308 307 306 307 308 308 307 307 306 304 302 301 300 300 300 299 298 295 292 292 291 289 287 285 283 282 281 280 279 278 277 276 275 275 273 271 269 267 266 264 263 262 261 259 258 257 256 256 256 256 256 257 257
24 20 17 14 11 8 5 1 356 353 349 342 331 321 313 309 306 308 310 310 305 299 297 300 304 306 305 304 304 304 303 303 303 303 303 303 303 304 304 305 304 304 303 302 300 299 298 297 296 296 295 292 290 289 289 288 287 285 284 283 282 281 280 279 277 277 276 276 275 274 272 271 269 267 266 264 263 261 261 260 260 259 259 259 259 260 260